Location: B
(0.0000°N, 0.0000°E)
Time: 14:57:21
(UTC+02:00)

Amateur Radio Satellites - All Passes

Search period start: 30 March 2015 14:27
Search period end: 31 March 2015 14:27
Location: B, 0.0000°N, 0.0000°E

Satellite Date Start Highest point End Downlink Frequencies (MHz)
Time Altitude Azimuth
VERMONT LUNAR 30 Mar 14:31:48 14:35:05 47° 43° (NE) 14:38:23 437.305
ITAMSAT 1 30 Mar 15:01:35 15:04:16 15° 79° (E) 15:07:17 435.822/435.867
SWISSCUBE 30 Mar 15:09:56 15:14:41 75° 102° (ESE) 15:19:26 437.505
BEESAT 30 Mar 15:12:45 15:17:30 73° 103° (ESE) 15:22:16 436.000
PCSat 30 Mar 15:14:12 15:19:16 41° 290° (WNW) 15:24:18 145.827
SRMSAT 30 Mar 15:16:42 15:21:10 21° 345° (NNW) 15:25:34 437.500
PHONESAT 2.4 30 Mar 15:18:54 15:22:18 44° 42° (NE) 15:25:45 2401.200-2431.200
Oscar 19 30 Mar 15:31:21 15:36:19 51° 258° (WSW) 15:41:15 437.125/150
Gurwin Techsat 1B 30 Mar 15:53:09 15:58:16 50° 78° (ENE) 16:03:24 435.225
ITUPSAT 1 30 Mar 16:00:54 16:04:55 27° 281° (W) 16:08:51 437.325
JUGNU 30 Mar 16:10:25 16:10:58 10° 357° (N) 16:11:28 437.505
YUBILEINY 30 Mar 16:20:04 16:26:09 19° 276° (W) 16:31:35 435.215
AIST 1 30 Mar 16:32:18 16:35:47 25° 85° (E) 16:39:21
JAS-2 30 Mar 16:35:21 16:35:41 10° 76° (ENE) 16:36:43 435.910
ITAMSAT 1 30 Mar 16:38:57 16:43:41 34° 258° (WSW) 16:48:20 435.822/435.867
O/OREOS (USA 219) 30 Mar 16:43:42 16:47:58 42° 255° (WSW) 16:52:11 437.305
KKS-1 30 Mar 16:44:11 16:48:31 52° 281° (WNW) 16:52:52 437.445
AO-7 30 Mar 16:45:59 16:52:32 27° 76° (ENE) 16:59:23 29.400- 29.500
PHONESAT 2.4 30 Mar 16:59:17 17:00:40 12° 220° (SW) 17:01:52 2401.200-2431.200
SRMSAT 30 Mar 17:09:23 17:11:12 11° 353° (N) 17:12:57 437.500
STARS 30 Mar 17:14:20 17:18:22 35° 281° (W) 17:22:23 437.465
HORYU 2 30 Mar 17:33:57 17:38:13 48° 258° (WSW) 17:42:28 437.375
JUGNU 30 Mar 17:59:14 18:01:09 11° 7° (N) 18:03:07 437.505
AIST 1 30 Mar 18:12:12 18:13:21 11° 264° (W) 18:14:09
JAS-2 30 Mar 18:14:29 18:20:25 65° 259° (WSW) 18:27:08 435.910
MOZHAYETS 4 30 Mar 18:25:44 18:30:21 88° 287° (WNW) 18:34:58
RS-15 30 Mar 18:27:34 18:38:09 51° 113° (ESE) 18:48:37 29.354- 29.394
AO-7 30 Mar 18:37:31 18:45:13 40° 255° (WSW) 18:52:44 29.400- 29.500
AUBIESAT-1 30 Mar 18:53:52 18:58:23 61° 105° (ESE) 19:02:36 437.475
SO-50 30 Mar 18:59:45 19:03:59 45° 293° (WNW) 19:08:18 436.795
SRMSAT 30 Mar 19:01:12 19:01:33 10° 3° (N) 19:01:56 437.500
CUTE-I 30 Mar 19:08:03 19:11:50 21° 79° (E) 19:15:51 437.470
Cubesat XI-IV 30 Mar 19:08:28 19:12:20 21° 79° (E) 19:16:25 437.490
M-CUBED/EXP-1 PRIME 30 Mar 19:19:13 19:23:43 49° 286° (WNW) 19:27:54 437.505
JUGNU 30 Mar 19:46:34 19:51:00 22° 16° (NNE) 19:55:30 437.505
STRAND 1 30 Mar 19:51:02 19:54:48 22° 101° (ESE) 19:58:45 437.568
CUBESAT XI-V 30 Mar 20:15:40 20:20:15 77° 282° (WNW) 20:24:51 437.345
ISS 30 Mar 20:16:53 20:18:33 13° 128° (SE) 20:20:20 145.825
GONETS M04 30 Mar 20:34:43 20:43:26 89° 89° (E) 20:52:08
PRISM 30 Mar 20:38:05 20:42:00 43° 282° (WNW) 20:45:55 437.425
RS-15 30 Mar 20:41:32 20:50:26 26° 294° (WNW) 20:58:39 29.354- 29.394
CUTE-I 30 Mar 20:47:19 20:51:49 26° 258° (WSW) 20:56:08 437.470
Cubesat XI-IV 30 Mar 20:47:53 20:52:20 25° 258° (WSW) 20:56:37 437.490
SRMSAT 30 Mar 20:48:04 20:51:42 17° 13° (NNE) 20:55:25 437.500
HO-68 30 Mar 21:16:42 21:20:57 18° 77° (ENE) 21:25:39 435.675
CUSAT 1 30 Mar 21:27:40 21:31:55 46° 99° (E) 21:35:10 437.405
STRAND 1 30 Mar 21:29:57 21:33:53 22° 281° (W) 21:37:39 437.568
JUGNU 30 Mar 21:34:34 21:40:21 53° 20° (NNE) 21:46:07 437.505
BRITE-PL 30 Mar 21:35:16 21:40:06 38° 80° (E) 21:44:37 437.365/2234.400
CANX-2 30 Mar 21:37:37 21:40:13 17° 80° (E) 21:43:02 2200.000
BEESAT 2 30 Mar 21:44:30 21:48:20 44° 68° (ENE) 21:52:09 435.950
CUTE 1.7 + AOD 2 30 Mar 21:50:43 21:54:00 23° 80° (E) 21:57:24 437.475
ISS 30 Mar 21:52:31 21:54:52 18° 307° (NW) 21:57:06 145.825
DOVE 4 30 Mar 22:00:25 22:04:17 26° 81° (E) 22:08:04 437.250
AAUSAT CUBESAT 2 30 Mar 22:10:53 22:14:06 22° 80° (E) 22:17:25 437.432
GOMX 1 30 Mar 22:16:07 22:21:06 76° 78° (ENE) 22:25:42 467.674
SEEDS 30 Mar 22:17:34 22:21:34 45° 79° (E) 22:25:35 437.485
BEESAT 3 30 Mar 22:20:17 22:24:00 37° 248° (WSW) 22:27:40 437.485
DANDE 30 Mar 22:23:57 22:28:19 33° 271° (W) 22:31:37 436.750
SRMSAT 30 Mar 22:35:55 22:41:21 38° 19° (NNE) 22:46:49 437.500
COMPASS 1 30 Mar 22:38:04 22:42:13 73° 79° (E) 22:46:22 437.405
Oscar 11 30 Mar 22:44:35 22:48:11 27° 79° (E) 22:51:50 145.826/435.025
FUNcube-1 30 Mar 22:58:34 23:01:09 17° 80° (E) 23:03:54 145.935
HO-68 30 Mar 23:01:43 23:08:35 49° 256° (WSW) 23:15:23 435.675
AIST 2 30 Mar 23:03:05 23:07:06 52° 248° (WSW) 23:11:03 435.215
UWE-3 30 Mar 23:05:03 23:08:40 29° 80° (E) 23:12:18 435.000/436.395/437.385
CINEMA 3 30 Mar 23:07:59 23:12:27 81° 259° (WSW) 23:16:41 145.822/145.860
ZACube-1 30 Mar 23:11:03 23:14:33 26° 80° (E) 23:18:04 437.345
CUBEBUG 2 30 Mar 23:12:10 23:16:18 48° 79° (E) 23:20:20 437.445
CANX-2 30 Mar 23:13:02 23:16:03 18° 260° (W) 23:18:54 2200.000
BRITE-PL 30 Mar 23:16:09 23:18:23 12° 258° (WSW) 23:20:12 437.365/2234.400
DELFI C3 30 Mar 23:17:39 23:21:38 60° 79° (E) 23:25:37 145.870
JUGNU 30 Mar 23:23:37 23:29:25 56° 201° (SSW) 23:35:11 437.505
CUTE 1.7 + AOD 2 30 Mar 23:27:40 23:29:50 13° 260° (W) 23:31:44 437.475
DOVE 4 30 Mar 23:39:19 23:41:54 14° 258° (WSW) 23:44:09 437.250
UNISAT 6 30 Mar 23:42:44 23:46:45 29° 101° (E) 23:50:53 437.425
AAUSAT CUBESAT 2 30 Mar 23:47:33 23:49:38 13° 260° (W) 23:51:27 437.432
UKube-1 30 Mar 23:50:45 23:55:05 70° 79° (ENE) 23:59:24 .
HUMSAT D 30 Mar 23:51:52 23:55:46 42° 79° (E) 23:59:39 437.325/437.525
TIGRISAT 30 Mar 23:52:06 23:56:24 38° 101° (E) 00:00:48 435.000
ESTCUBE 1 30 Mar 23:53:57 23:54:20 10° 80° (E) 23:55:07 437.505/2401.250
DX 1 31 Mar 00:02:34 00:06:57 73° 258° (WSW) 00:11:18 434.975-435.025
QB50P1 31 Mar 00:06:38 00:10:02 24° 101° (E) 00:13:33 145.935-145.965
DUCHIFAT 1 31 Mar 00:07:46 00:11:09 24° 101° (E) 00:14:41 145.980
QB50P2 31 Mar 00:21:20 00:25:19 41° 101° (E) 00:29:23 145.880/145.840
Oscar 11 31 Mar 00:22:28 00:24:15 12° 260° (W) 00:25:44 145.826/435.025
ANTELSAT 31 Mar 00:22:40 00:27:22 79° 280° (W) 00:32:07 437.575/2403.000
50 SAT 31 Mar 00:23:46 00:27:40 79° 79° (E) 00:31:34 437.505
SRMSAT 31 Mar 00:24:41 00:30:37 79° 202° (SSW) 00:36:33 437.500
FUNcube-1 31 Mar 00:34:28 00:37:24 18° 260° (W) 00:40:07 145.935
BUGSAT 1 31 Mar 00:42:13 00:46:08 51° 101° (ESE) 00:50:08 437.445
CUBEBUG 1 31 Mar 00:44:02 00:48:20 49° 79° (E) 00:52:37 437.445
UWE-3 31 Mar 00:44:36 00:45:07 10° 260° (W) 00:45:16 435.000/436.395/437.385
VELOX 1 31 Mar 00:47:40 00:52:03 51° 259° (WSW) 00:56:21 145.980
ZACube-1 31 Mar 00:49:28 00:50:49 11° 260° (W) 00:51:50 437.345
POPSAT HIP 1 31 Mar 00:49:32 00:53:47 76° 282° (WNW) 00:58:03 437.405
AISAT 31 Mar 00:53:03 00:57:18 41° 259° (WSW) 01:01:28 437.250
NANOSAT C BR1 31 Mar 00:59:43 01:03:51 52° 281° (WNW) 01:08:01 145.865
POLYITAN 1 31 Mar 01:05:13 01:09:17 42° 281° (W) 01:13:21 437.675
JUGNU 31 Mar 01:14:12 01:18:43 22° 196° (SSW) 01:23:09 437.505
UNISAT 6 31 Mar 01:20:52 01:23:26 14° 280° (W) 01:25:42 437.425
ESTCUBE 1 31 Mar 01:26:57 01:31:08 35° 259° (W) 01:35:15 437.505/2401.250
TIGRISAT 31 Mar 01:32:03 01:33:06 10° 279° (W) 01:33:44 435.000
QB50P1 31 Mar 01:43:42 01:45:49 13° 280° (W) 01:47:40 145.935-145.965
DUCHIFAT 1 31 Mar 01:44:49 01:46:53 13° 280° (W) 01:48:41 145.980
PCSat 31 Mar 02:07:19 02:12:19 40° 70° (ENE) 02:17:23 145.827
VERMONT LUNAR 31 Mar 02:07:54 02:11:00 34° 138° (SE) 02:14:07 437.305
TISAT 1 31 Mar 02:08:44 02:12:59 70° 258° (WSW) 02:17:11 437.305
SRMSAT 31 Mar 02:14:49 02:19:57 30° 198° (SSW) 02:25:03 437.500
SPROUT 31 Mar 02:24:23 02:28:19 33° 259° (W) 02:32:10 437.525
Oscar 19 31 Mar 02:26:42 02:30:49 25° 101° (ESE) 02:35:06 437.125/150
ITUPSAT 1 31 Mar 02:45:37 02:49:46 30° 79° (ENE) 02:54:00 437.325
YUBILEINY 31 Mar 02:54:12 03:02:58 85° 266° (W) 03:11:43 435.215
PHONESAT 2.4 31 Mar 02:59:32 03:02:50 36° 138° (SE) 03:06:09 2401.200-2431.200
JUGNU 31 Mar 03:06:38 03:08:31 11° 188° (S) 03:10:18 437.505
O/OREOS (USA 219) 31 Mar 03:17:28 03:19:39 14° 107° (ESE) 03:22:08 437.305
SWISSCUBE 31 Mar 03:32:17 03:36:59 55° 258° (WSW) 03:41:40 437.505
ITAMSAT 1 31 Mar 03:34:37 03:39:22 39° 102° (ESE) 03:44:11 435.822/435.867
BEESAT 31 Mar 03:35:00 03:39:42 56° 258° (WSW) 03:44:23 436.000
VERMONT LUNAR 31 Mar 03:47:09 03:48:39 12° 319° (NW) 03:50:02 437.305
STARS 31 Mar 03:51:23 03:53:35 14° 80° (E) 03:56:04 437.465
PCSat 31 Mar 03:53:06 03:55:42 13° 247° (WSW) 03:57:53 145.827
Oscar 19 31 Mar 04:06:13 04:10:03 20° 281° (W) 04:13:41 437.125/150
SRMSAT 31 Mar 04:06:41 04:09:45 14° 191° (S) 04:12:43 437.500
HORYU 2 31 Mar 04:13:26 04:14:36 11° 100° (E) 04:16:06 437.375
ITUPSAT 1 31 Mar 04:24:59 04:27:34 14° 259° (W) 04:29:50 437.325
Gurwin Techsat 1B 31 Mar 04:31:34 04:36:45 56° 282° (WNW) 04:41:57 435.225
AIST 1 31 Mar 04:38:41 04:42:45 38° 95° (E) 04:46:51
PHONESAT 2.4 31 Mar 04:39:22 04:41:08 13° 319° (NW) 04:42:47 2401.200-2431.200
O/OREOS (USA 219) 31 Mar 04:55:09 04:58:58 25° 286° (WNW) 05:02:42 437.305
KKS-1 31 Mar 04:57:23 05:01:27 34° 259° (WSW) 05:05:26 437.445
AO-7 31 Mar 05:11:09 05:18:52 45° 105° (ESE) 05:26:45 29.400- 29.500
ITAMSAT 1 31 Mar 05:16:32 05:18:48 12° 281° (W) 05:20:41 435.822/435.867
STARS 31 Mar 05:26:21 05:29:57 24° 259° (W) 05:33:26 437.465
SO-50 31 Mar 05:33:52 05:36:54 17° 65° (ENE) 05:40:07 436.795
HORYU 2 31 Mar 05:47:07 05:51:09 32° 281° (WNW) 05:55:08 437.375
JAS-2 31 Mar 05:48:16 05:55:13 73° 101° (ESE) 06:01:21 435.910
RS-15 31 Mar 06:08:27 06:19:26 45° 68° (ENE) 06:30:56 29.354- 29.394
MOZHAYETS 4 31 Mar 06:42:52 06:47:19 50° 259° (W) 06:51:46
JUGNU 31 Mar 06:45:21 06:48:40 15° 168° (SSE) 06:52:04 437.505
AUBIESAT-1 31 Mar 06:55:53 06:59:23 55° 75° (ENE) 07:03:09 437.475
AO-7 31 Mar 07:05:04 07:11:33 24° 284° (WNW) 07:17:40 29.400- 29.500
SO-50 31 Mar 07:13:19 07:17:21 26° 247° (WSW) 07:21:14 436.795
GONETS M04 31 Mar 07:14:26 07:20:16 21° 84° (E) 07:26:43
M-CUBED/EXP-1 PRIME 31 Mar 07:21:54 07:25:16 41° 256° (WSW) 07:28:51 437.505
CUTE-I 31 Mar 07:46:06 07:51:18 60° 102° (ESE) 07:56:33 437.470
Cubesat XI-IV 31 Mar 07:46:45 07:51:59 62° 102° (ESE) 07:57:15 437.490
SRMSAT 31 Mar 07:47:44 07:50:19 13° 171° (S) 07:52:58 437.500
RS-15 31 Mar 08:21:09 08:31:54 35° 246° (WSW) 08:42:24 29.354- 29.394
STRAND 1 31 Mar 08:22:34 08:27:37 56° 78° (ENE) 08:32:40 437.568
CUSAT 1 31 Mar 08:26:05 08:29:51 17° 88° (E) 08:34:36 437.405
JUGNU 31 Mar 08:32:55 08:38:12 34° 161° (SSE) 08:43:33 437.505
CUBESAT XI-V 31 Mar 08:34:25 08:38:55 42° 259° (W) 08:43:21 437.345
PRISM 31 Mar 08:42:04 08:46:00 38° 259° (WSW) 08:49:54 437.425
GONETS M04 31 Mar 09:08:37 09:17:03 49° 266° (W) 09:25:25
HO-68 31 Mar 09:09:11 09:12:27 14° 103° (ESE) 09:16:21 435.675
DANDE 31 Mar 09:23:03 09:28:50 49° 87° (E) 09:36:17 436.750
ISS 31 Mar 09:25:14 09:28:05 28° 234° (SW) 09:30:54 145.825
SRMSAT 31 Mar 09:35:18 09:40:12 26° 163° (SSE) 09:45:10 437.500
BEESAT 2 31 Mar 09:39:57 09:43:51 51° 112° (ESE) 09:47:49 435.950
CANX-2 31 Mar 09:43:57 09:47:10 22° 100° (E) 09:50:32 2200.000
CUTE 1.7 + AOD 2 31 Mar 09:57:10 10:00:52 29° 101° (E) 10:04:39 437.475
BRITE-PL 31 Mar 10:01:01 10:05:35 81° 101° (E) 10:10:37 437.365/2234.400
CUSAT 1 31 Mar 10:06:03 10:12:12 50° 262° (W) 10:19:44 437.405
BEESAT 3 31 Mar 10:15:12 10:18:51 34° 292° (WNW) 10:22:32 437.485
AAUSAT CUBESAT 2 31 Mar 10:15:15 10:18:45 27° 100° (E) 10:22:22 437.432
DOVE 4 31 Mar 10:19:48 10:24:24 52° 102° (ESE) 10:29:18 437.250
JUGNU 31 Mar 10:21:24 10:27:19 88° 336° (NNW) 10:33:19 437.505
SEEDS 31 Mar 10:23:22 10:27:33 57° 101° (E) 10:31:46 437.485
GOMX 1 31 Mar 10:39:09 10:43:43 53° 280° (W) 10:48:37 467.674
COMPASS 1 31 Mar 10:43:06 10:47:20 88° 99° (E) 10:51:34 437.405
HO-68 31 Mar 10:53:05 11:00:07 58° 284° (WNW) 11:07:08 435.675
Oscar 11 31 Mar 10:53:08 10:57:06 36° 101° (E) 11:01:08 145.826/435.025
AIST 2 31 Mar 11:01:58 11:05:55 41° 292° (WNW) 11:09:53 435.215
FUNcube-1 31 Mar 11:07:22 11:11:04 26° 101° (E) 11:14:56 145.935
DANDE 31 Mar 11:08:24 11:12:35 17° 257° (WSW) 11:16:46 436.750
UWE-3 31 Mar 11:15:38 11:20:01 45° 101° (E) 11:24:31 435.000/436.395/437.385
DELFI C3 31 Mar 11:18:45 11:22:46 62° 101° (E) 11:26:47 145.870
CANX-2 31 Mar 11:20:24 11:23:01 15° 280° (W) 11:25:23 2200.000
ZACube-1 31 Mar 11:20:25 11:24:39 40° 101° (E) 11:29:00 437.345
SRMSAT 31 Mar 11:23:39 11:29:37 67° 159° (SSE) 11:35:37 437.500
CINEMA 3 31 Mar 11:23:56 11:28:30 49° 280° (W) 11:33:15 145.822/145.860
CUBEBUG 2 31 Mar 11:24:06 11:28:45 78° 101° (ESE) 11:33:31 437.445
AISAT 31 Mar 11:31:27 11:33:12 13° 101° (E) 11:35:16 437.250
CUTE 1.7 + AOD 2 31 Mar 11:35:29 11:36:42 11° 279° (W) 11:37:35 437.475
AAUSAT CUBESAT 2 31 Mar 11:52:47 11:54:17 11° 280° (W) 11:55:29 437.432
UNISAT 6 31 Mar 11:56:35 12:00:36 41° 79° (ENE) 12:04:37 437.425
HUMSAT D 31 Mar 11:57:11 12:01:24 54° 101° (E) 12:05:40 437.325/437.525
UKube-1 31 Mar 11:59:50 12:04:10 86° 277° (W) 12:08:29 .
TIGRISAT 31 Mar 12:05:49 12:09:59 55° 79° (E) 12:14:08 435.000
ESTCUBE 1 31 Mar 12:06:10 12:08:49 16° 100° (E) 12:11:43 437.505/2401.250
JUGNU 31 Mar 12:11:12 12:16:29 33° 341° (NNW) 12:21:46 437.505
DX 1 31 Mar 12:12:34 12:16:46 51° 282° (WNW) 12:21:00 434.975-435.025
QB50P1 31 Mar 12:13:14 12:16:56 30° 79° (E) 12:20:40 145.935-145.965
DUCHIFAT 1 31 Mar 12:14:02 12:17:43 30° 79° (E) 12:21:26 145.980
50 SAT 31 Mar 12:22:43 12:26:46 76° 101° (E) 12:30:51 437.505
QB50P2 31 Mar 12:28:17 12:32:26 52° 79° (E) 12:36:34 145.880/145.840
ANTELSAT 31 Mar 12:37:07 12:41:15 47° 259° (WSW) 12:45:19 437.575/2403.000
FUNcube-1 31 Mar 12:44:39 12:47:18 15° 279° (W) 12:49:43 145.935
BUGSAT 1 31 Mar 12:45:57 12:50:08 61° 79° (E) 12:54:16 437.445
CUBEBUG 1 31 Mar 12:54:28 12:58:45 70° 101° (ESE) 13:03:04 437.445
POPSAT HIP 1 31 Mar 12:56:34 13:00:46 58° 259° (WSW) 13:04:54 437.405
SPROUT 31 Mar 12:58:47 13:00:32 13° 100° (E) 13:02:34 437.525
VELOX 1 31 Mar 13:00:11 13:04:12 34° 281° (W) 13:08:10 145.980
AISAT 31 Mar 13:05:55 13:09:42 27° 281° (W) 13:13:25 437.250
NANOSAT C BR1 31 Mar 13:06:33 13:10:35 41° 259° (W) 13:14:33 145.865
POLYITAN 1 31 Mar 13:12:41 13:16:33 33° 259° (W) 13:20:19 437.675
SRMSAT 31 Mar 13:13:10 13:18:53 45° 340° (NNW) 13:24:36 437.500
YUBILEINY 31 Mar 13:33:35 13:39:46 23° 96° (E) 13:46:27 435.215
ESTCUBE 1 31 Mar 13:42:04 13:45:35 22° 281° (W) 13:48:59 437.505/2401.250
VERMONT LUNAR 31 Mar 13:43:51 13:46:42 26° 42° (NE) 13:49:36 437.305
QB50P1 31 Mar 13:52:08 13:52:43 10° 260° (W) 13:52:56 145.935-145.965
DUCHIFAT 1 31 Mar 13:52:51 13:53:27 10° 260° (W) 13:53:41 145.980
JUGNU 31 Mar 14:02:42 14:06:06 15° 348° (NNW) 14:09:24 437.505
TISAT 1 31 Mar 14:14:54 14:19:01 56° 282° (WNW) 14:23:10 437.305
SWISSCUBE 31 Mar 14:19:00 14:21:29 15° 101° (E) 14:24:17 437.505
BEESAT 31 Mar 14:21:42 14:24:06 14° 100° (E) 14:26:49 436.000
